This demonstration page uses our WeatherBlox Daily Observations layout. Learn more.

Left ArrowRight Arrow

Hourly Observations for June 3, 2021

Temp ( °F °C ) Dew Point ( °F °C ) Humidity (%) Winds ( mph kmh ) Pressure ( in mb ) Visibility ( mi km ) Precip ( " mm )
12:53 am 00:53 Clear 61 16.1 51 10.6 70 70 WNW 3 6 29.77 1008 10 16 N/A
1:53 am 01:53 Clear 56 13.3 51 10.6 84 84 SW 6 9 29.77 1008 10 16 N/A
2:53 am 02:53 Clear 59 15 50 10 72 72 SW 3 6 29.77 1008 10 16 N/A
3:53 am 03:53 Clear 61 16.1 52 11.1 72 72 WSW 8 13 29.76 1008 10 16 N/A
4:53 am 04:53 Clear 56 13.3 51 10.6 84 84 W 5 7 29.77 1008 10 16 N/A
5:53 am 05:53 Sunny 57 13.9 51 10.6 81 81 WSW 8 13 29.77 1008 10 16 N/A
6:53 am 06:53 Sunny 60 15.6 53 11.7 78 78 SW 9 15 29.78 1009 10 16 N/A
7:53 am 07:53 Sunny 69 20.6 54 12.2 59 59 SW 15 24 29.78 1009 10 16 N/A
8:53 am 08:53 Sunny 75 23.9 54 12.2 48 48 SW 15 24 29.78 1008 10 16 N/A
9:53 am 09:53 Sunny 79 26.1 55 12.8 44 44 SW 13 20 29.78 1008 10 16 N/A
10:53 am 10:53 Sunny 83 28.3 55 12.8 38 38 WSW 14 22 29.77 1008 10 16 N/A
11:53 am 11:53 Sunny 86 30 55 12.8 35 35 SW 13 20 29.75 1008 10 16 N/A
12:53 pm 12:53 Sunny 88 31.1 54 12.2 31 31 S 10 17 29.74 1007 10 16 N/A
1:53 pm 13:53 Sunny 92 33.3 50 10 24 24 SW 20 31 29.72 1006 10 16 N/A
2:53 pm 14:53 Sunny 93 33.9 49 9.4 22 22 WSW 15 24 29.70 1006 10 16 N/A
3:53 pm 15:53 Sunny 93 33.9 51 10.6 24 24 SW 12 19 29.68 1005 10 16 N/A
4:53 pm 16:53 Sunny 93 33.9 51 10.6 24 24 SW 13 20 29.67 1005 10 16 N/A
5:53 pm 17:53 Sunny 93 33.9 51 10.6 24 24 WSW 13 20 29.66 1004 10 16 N/A
6:53 pm 18:53 Sunny 90 32.2 54 12.2 29 29 SW 12 19 29.65 1004 10 16 N/A
7:53 pm 19:53 Sunny 87 30.6 56 13.3 35 35 WNW 9 15 29.64 1004 10 16 N/A
8:53 pm 20:53 Sunny 77 25 58 14.4 52 52 SSW 8 13 29.66 1005 10 16 N/A
9:53 pm 21:53 Clear 78 25.6 52 11.1 40 40 SW 9 15 29.67 1005 10 16 N/A
10:53 pm 22:53 Clear 73 22.8 53 11.7 50 50 WSW 10 17 29.68 1005 10 16 N/A
11:53 pm 23:53 Clear 76 24.4 49 9.4 39 39 SW 16 26 29.66 1004 10 16 N/A

Powered by AerisWeather